#timestamp,LO_Frequency,Hit,StdDev 
1531432815.4,286046998.4,N
1531432835.3,286046999.2,N
1531432855.1,286046997.4,N
1531432875.9,286046997.7,N
1531432895.7,286046997.9,N
1531432915.5,286046997.1,N
1531432935.4,286046997.5,N
1531432955.2,286046997.8,N
1531432975.1,286046994.9,Y
1531432976.0,286046994.9,P
1531432995.8,286046999.5,N
1531433015.6,286046996.7,N
1531433035.5,286046999.3,N
1531433055.3,286046998.7,N
1531433075.2,286047001.2,N
1531433095.9,286046999.0,N
1531433115.7,286046999.1,N
1531433135.6,286046999.4,N
1531433155.4,286046999.3,N
1531433175.2,286047000.4,N
1531433195.1,286047001.0,N
1531433196.0,286047001.0,N
1531433215.8,286046998.6,N
1531433235.7,286046999.5,N
1531433255.5,286046998.8,N
1531433275.3,286046996.8,N
1531433295.2,286046997.2,N
1531433315.0,286046997.0,N
1531433315.9,286046997.0,N
1531433335.8,286046997.5,N
1531433355.6,286046997.1,N
1531433375.4,286046996.5,N
1531433395.3,286046999.4,N
1531433415.1,286046996.5,N
1531433416.0,286046996.5,N
1531433435.9,286046995.0,Y
1531433455.7,286046996.9,P
1531433475.5,286046998.2,N
1531433495.4,286046998.2,N
1531433515.2,286046997.2,Y
1531433535.0,286046999.9,P
1531433536.0,286046999.9,N
1531433555.8,286047003.7,P
1531433575.6,286047001.4,N
1531433595.5,286047002.1,N
1531433615.3,286047002.5,N
1531433635.1,286047003.9,N
1531433655.9,286047002.0,N
1531433675.7,286046999.9,N
1531433695.6,286046999.9,N
1531433715.4,286047000.1,N
1531433735.2,286047004.4,N
1531433755.0,286047004.0,N
1531433755.9,286047004.0,N
1531433775.8,286047001.4,N
1531433795.6,286047004.1,N
1531433815.5,286047001.3,N
1531433835.3,286047001.3,N
1531433855.1,286047004.0,N
1531433875.9,286047003.2,N
1531433895.7,286047003.7,N
1531433915.5,286047004.1,N
1531433935.4,286047002.9,N
1531433955.2,286047003.5,N
1531433975.1,286047001.7,N
1531433976.0,286047001.7,N
1531433995.8,286047003.6,N
1531434015.5,286047004.4,N
1531434035.4,286047001.6,N
1531434055.2,286047004.3,N
1531434075.0,286047003.7,N
1531434095.3,286047003.7,N
1531434115.1,286047003.7,N
1531434135.9,286047005.9,Y
1531434155.7,286047002.1,P
1531434175.5,286047000.3,N
1531434195.4,286046998.6,N
1531434215.2,286046998.1,N
1531434235.1,286046998.1,N
1531434236.0,286046998.1,N
1531434255.8,286046998.4,N
1531434275.6,286046998.9,N
1531434295.5,286046998.4,N
1531434315.3,286046998.4,N
1531434335.1,286047000.3,N
1531434355.9,286046999.8,N
1531434375.7,286047001.2,N
1531434395.6,286046998.7,N
1531434415.4,286046999.2,N
1531434435.2,286046999.2,N
1531434455.1,286046999.1,N
1531434456.0,286046999.1,N
1531434475.8,286046999.2,N
1531434495.7,286046997.1,N
1531434515.5,286046996.8,N
1531434535.3,286046999.2,N
1531434555.2,286046999.1,N
1531434575.0,286046999.3,N
1531434575.9,286046999.3,N
1531434595.7,286047001.2,N
1531434615.6,286046999.3,N
1531434635.4,286046998.3,N
1531434655.3,286047001.2,N
1531434675.1,286047000.4,N
1531434676.0,286047000.4,N
1531434695.8,286046998.1,N
1531434715.7,286046998.8,N
1531434735.5,286046999.1,N
1531434755.3,286046999.5,N
1531434775.2,286046996.9,Y
1531434795.0,286046998.4,P
1531434795.9,286046998.4,P
1531434815.8,286046999.1,N
1531434835.6,286046998.5,Y
1531434855.4,286047001.0,P
1531434875.3,286047000.6,N
1531434895.1,286047002.8,N
1531434915.9,286046999.8,N
1531434935.7,286046999.8,N
1531434955.5,286046999.7,N
1531434975.4,286047001.6,N
1531434995.2,286047004.1,Y
1531435015.0,286047002.6,P
1531435015.9,286047002.6,N
1531435035.8,286047002.2,N
1531435055.6,286047000.1,N
1531435075.5,286047002.7,N
1531435095.3,286047002.3,N
1531435115.1,286047000.1,N
1531435135.9,286047002.3,N
1531435155.7,286047001.6,N
1531435175.6,286047001.9,N
1531435195.4,286047001.6,N
1531435215.2,286047002.0,N
1531435235.1,286047000.9,N
1531435236.0,286047000.9,N
1531435255.8,286046998.7,N
1531435275.6,286046998.2,N
1531435295.5,286047001.1,N
1531435315.3,286047000.2,N
1531435335.2,286046999.7,N
1531435355.9,286047000.1,N
1531435375.7,286047000.2,N
1531435395.6,286047002.3,N
1531435415.4,286047001.5,N
1531435435.3,286047001.5,N
1531435455.1,286047002.2,N
1531435456.0,286047002.2,N
1531435475.8,286047001.8,N
1531435495.7,286047001.4,N
1531435515.5,286047001.6,N
1531435535.4,286046999.7,N
1531435555.1,286047001.3,N
1531435575.8,286047002.2,N
1531435595.7,286047002.5,N
1531435615.5,286047002.6,N
1531435635.4,286047002.0,N
1531435655.2,286047003.5,Y
1531435675.0,286047002.6,P
1531435675.9,286047002.6,P
1531435695.8,286047001.7,N
1531435715.6,286047002.1,Y
1531435735.5,286047000.4,P
1531435755.4,286047000.4,N
1531435775.2,286047000.1,N
1531435795.0,286047000.1,N
1531435796.0,286047000.1,N
1531435815.8,286047000.9,N
1531435835.6,286047000.4,N
1531435855.5,286047000.6,N
1531435875.3,286047000.3,N
1531435895.1,286047000.7,N
1531435915.9,286047000.0,N
1531435935.7,286047002.3,Y
1531435955.6,286046999.9,P
1531435975.4,286047000.8,N
1531435995.2,286046998.1,P
1531436015.1,286047001.2,N
1531436016.0,286047001.2,N
1531436035.8,286047000.7,N
1531436055.7,286047000.8,N
1531436075.5,286047000.7,N
1531436095.3,286047001.1,N
1531436115.2,286046999.9,N
1531436135.0,286047000.0,N
1531436135.9,286047000.0,N
1531436155.8,286047000.0,N
1531436175.6,286047000.1,N
1531436195.4,286047001.6,N
1531436215.3,286046999.7,N
1531436235.1,286047002.0,N
1531436255.9,286047002.8,Y
1531436275.7,286047002.0,P
1531436295.5,286046999.7,N
1531436315.4,286046999.8,N
1531436335.2,286047002.4,N
1531436355.0,286047002.6,N
1531436355.9,286047002.6,N
1531436375.8,286047001.8,N
1531436395.6,286047002.5,N
